{"data":{"norad_id":61860,"intl_designator":"2024-202R","name":"STARLINK-32316","alt_names":[],"object_type":"PAYLOAD","status":"ACTIVE","operator":null,"country":"US","launch_date":"2024-11-07","launch_site_code":"AFETR","launch_vehicle":null,"mission":null,"orbit_class":"UNKNOWN","rcs_meters":null,"size_class":null,"mass_kg":null,"dimensions":null,"purposes":["comms"],"wikipedia_slug":null,"has_3d_model":false,"image_url":null,"decayed_at":null,"tle_current":{"epoch":"2026-05-25T02:02:31.243776Z","epoch_age_seconds":67654,"freshness":"FRESH","line1":"1 61860U 24202R   26145.08508384  .00004142  00000+0  15996-3 0  9998","line2":"2 61860  43.0011 162.8860 0001122 282.5425  77.5301 15.27575534 87054","mean_motion":15.27575534,"eccentricity":0.0001122,"inclination_deg":43.0011,"raan_deg":162.886,"arg_perigee_deg":282.5425,"mean_anomaly_deg":77.5301,"bstar":0.00015996,"rev_number":8705,"period_min":94.267024310694,"perigee_km":482.29264230246,"apogee_km":483.83229546328,"semimajor_km":6861.1994688829,"source":"CELESTRAK","updated_at":"2026-05-25T13:38:19.452780Z"}}}